TimeEDT,TemperatureF,Dew PointF,Humidity,Sea Level PressureIn,VisibilityMPH,Wind Direction,Wind SpeedMPH,Gust SpeedMPH,PrecipitationIn,Events,Conditions,WindDirDegrees,DateUTC
12:53 AM,39.9,23.0,51,29.75,10.0,WNW,6.9,16.1,N/A,,Clear,290,2013-03-16 04:53:00
1:53 AM,39.0,23.0,53,29.76,10.0,WNW,5.8,-,N/A,,Partly Cloudy,300,2013-03-16 05:53:00
2:53 AM,37.9,24.1,57,29.78,10.0,NNW,8.1,-,N/A,,Overcast,340,2013-03-16 06:53:00
3:53 AM,37.0,23.0,57,29.79,10.0,Variable,3.5,-,N/A,,Mostly Cloudy,0,2013-03-16 07:53:00
4:53 AM,36.0,18.0,48,29.81,10.0,NNW,8.1,-,N/A,,Partly Cloudy,340,2013-03-16 08:53:00
5:53 AM,35.1,17.1,48,29.83,10.0,NNW,6.9,-,N/A,,Partly Cloudy,340,2013-03-16 09:53:00
6:53 AM,33.1,18.0,54,29.85,10.0,North,5.8,-,N/A,,Mostly Cloudy,350,2013-03-16 10:53:00
7:53 AM,34.0,19.9,56,29.86,10.0,North,8.1,-,N/A,,Mostly Cloudy,10,2013-03-16 11:53:00
8:53 AM,34.0,16.0,48,29.87,10.0,North,12.7,-,N/A,,Overcast,360,2013-03-16 12:53:00
9:53 AM,36.0,14.0,41,29.87,10.0,North,8.1,-,N/A,,Overcast,10,2013-03-16 13:53:00
10:53 AM,37.0,12.9,37,29.85,10.0,NNE,11.5,-,N/A,,Overcast,20,2013-03-16 14:53:00
11:53 AM,37.9,14.0,38,29.84,10.0,Variable,6.9,-,N/A,,Overcast,0,2013-03-16 15:53:00
12:53 PM,37.9,14.0,38,29.82,10.0,Calm,Calm,-,N/A,,Overcast,0,2013-03-16 16:53:00
1:53 PM,39.0,18.0,43,29.81,10.0,South,10.4,-,N/A,,Overcast,190,2013-03-16 17:53:00
2:53 PM,37.0,19.9,50,29.83,10.0,SSW,8.1,-,N/A,,Overcast,210,2013-03-16 18:53:00
3:15 PM,33.8,24.8,70,29.83,3.0,SSW,11.5,19.6,N/A,,Overcast,210,2013-03-16 19:15:00
3:24 PM,33.8,24.8,70,29.82,2.0,SW,9.2,18.4,0.00,Snow,Light Snow,220,2013-03-16 19:24:00
3:31 PM,33.8,26.6,75,29.82,1.5,SW,10.4,18.4,0.00,Snow,Light Snow,220,2013-03-16 19:31:00
3:53 PM,33.1,28.0,82,29.81,1.5,SW,8.1,-,0.00,Snow,Light Snow,230,2013-03-16 19:53:00
4:53 PM,34.0,28.9,82,29.80,1.5,SW,5.8,-,0.00,Snow,Light Snow,230,2013-03-16 20:53:00
5:00 PM,33.8,28.4,81,29.79,3.0,SSW,5.8,-,0.00,Snow,Light Snow,210,2013-03-16 21:00:00
5:53 PM,34.0,28.0,79,29.81,6.0,WSW,4.6,-,0.00,Snow,Light Snow,240,2013-03-16 21:53:00
6:53 PM,34.0,28.0,79,29.81,10.0,WSW,3.5,-,0.00,,Overcast,240,2013-03-16 22:53:00
7:53 PM,35.1,28.9,78,29.82,10.0,Calm,Calm,-,N/A,,Overcast,0,2013-03-16 23:53:00
8:53 PM,35.1,28.0,76,29.85,9.0,WNW,3.5,-,0.00,Snow,Light Snow,300,2013-03-17 00:53:00
9:53 PM,35.1,28.0,76,29.87,10.0,NW,3.5,-,0.00,,Overcast,320,2013-03-17 01:53:00
10:53 PM,35.1,27.0,72,29.88,10.0,NW,5.8,-,N/A,,Overcast,310,2013-03-17 02:53:00
11:53 PM,35.1,28.0,76,29.90,10.0,WNW,4.6,-,N/A,,Overcast,300,2013-03-17 03:53:00